Home   Weather   Antananarivo   Past weeks

Flag for Madagascar Past Weather in Antananarivo, Madagascar — Yesterday and Last 2 Weeks

70 °F

Thundershowers. Partly cloudy.

Feels Like: 70 °F
Forecast: 59 / 81 °F
Wind: 9 mph from East

Location: Antananarivo / Ivato

Current Time: Oct 26, 2016 at 10:34:27 PM

Latest Report: Oct 26, 2016 at 10:00 PM

Visibility: N/A

Pressure: 30.15 "Hg (25.96 "Hg at 1287m altitude)

Humidity: 78%

Dew Point: 63 °F

Location of AntananarivoLocation

Past Weather in Antananarivo — Graph


Antananarivo Temperature Yesterday

Maximum temperature yesterday: 84 °F (at 1:00 PM)
Minimum temperature yesterday: 59 °F (at 4:00 AM)
Average temperature yesterday: 69 °F

High & Low Weather Summary for the Past Weeks

High88 °F (Oct 18, 2:00 PM)100% (Oct 15, 1:00 AM)30.30 "Hg (Oct 15, 1:00 AM)
Low52 °F (Oct 12, 4:30 AM)13% (Oct 18, 3:00 PM)30.01 "Hg (Oct 15, 2:30 PM)
Average67 °F66%30.18 "Hg
* Reported Oct 11 9:00 PM — Oct 26 9:30 PM, Antananarivo, Weather by CustomWeather, © 2016

Note: Actual official high and low records may vary slightly from our data, if they occured in-between our weather recording intervals... More about our weather records


Antananarivo Weather History for the Previous 24 Hours

Scroll right to see more
Time TempWeatherWind HumidityBarometerVisibility
9:30 PM
Wed, Oct 26
70 °FThundershowers. Partly cloudy.9 mph83%30.15 "HgN/A
9:00 PM72 °FThundershowers. Partly cloudy.10 mph78%30.12 "HgN/A
8:30 PM72 °FThundershowers. Passing clouds.12 mph78%30.09 "HgN/A
8:00 PM73 °FThundershowers. Passing clouds.9 mph69%30.09 "HgN/A
7:30 PM75 °FThundershowers. Passing clouds.No wind50%30.09 "HgN/A
7:00 PM77 °FThundershowers. Passing clouds.No wind42%30.07 "HgN/A
6:30 PM79 °FPassing clouds.No wind39%30.07 "HgN/A
6:00 PM79 °FPassing clouds.6 mph39%30.04 "HgN/A
5:30 PM79 °FScattered clouds.7 mph39%30.04 "HgN/A
5:00 PM81 °FScattered clouds.10 mph34%30.01 "HgN/A
4:30 PM84 °FScattered clouds.No wind29%30.01 "HgN/A
4:00 PM84 °FPartly sunny.3 mph29%30.01 "HgN/A
3:30 PM86 °FPartly sunny.6 mph27%30.01 "HgN/A
3:00 PM86 °FPartly sunny.No wind31%30.01 "HgN/A
2:30 PM82 °FPartly sunny.No wind32%30.04 "HgN/A
2:00 PM82 °FPartly sunny.No wind32%30.04 "HgN/A
1:30 PM84 °FPartly sunny.No wind35%30.07 "HgN/A
1:00 PM81 °FPartly sunny.No wind39%30.07 "HgN/A
12:30 PM81 °FPartly sunny.No wind39%30.07 "HgN/A
12:00 PM81 °FPartly sunny.No wind39%30.09 "HgN/A
11:30 AM82 °FScattered clouds.1 mph40%30.09 "HgN/A
11:00 AM81 °FScattered clouds.No wind42%30.12 "HgN/A
10:30 AM81 °FScattered clouds.No wind45%30.12 "HgN/A
10:00 AM77 °FPassing clouds.No wind51%30.12 "HgN/A
9:30 AM75 °FPassing clouds.No wind54%30.15 "HgN/A
9:00 AM73 °FPassing clouds.No wind57%30.15 "HgN/A
8:30 AM72 °FSunny.No wind65%30.15 "Hg10 mi
8:00 AM70 °FPassing clouds.No wind64%30.15 "Hg5 mi
7:30 AM68 °FPassing clouds.1 mph73%30.15 "Hg3 mi
7:00 AM64 °FPassing clouds.5 mph83%30.15 "Hg3 mi
6:30 AM63 °FPassing clouds.No wind94%30.12 "Hg3 mi
6:00 AM59 °FPassing clouds.No wind100%30.12 "Hg4 mi
5:30 AM57 °FThunderstorms. Cloudy.No wind100%30.12 "HgN/A
5:00 AM57 °FThunderstorms. Overcast.No wind100%30.09 "HgN/A
4:30 AM57 °FThunderstorms. Overcast.No wind100%30.09 "HgN/A
4:00 AM59 °FThunderstorms. Overcast.No wind94%30.09 "HgN/A
3:30 AM57 °FThunderstorms. Overcast.No wind100%30.07 "HgN/A
3:00 AM59 °FThunderstorms. Overcast.No wind94%30.07 "HgN/A
2:30 AM59 °FThunderstorms. Overcast.No wind94%30.09 "HgN/A
2:00 AM59 °FThunderstorms. Overcast.No wind94%30.09 "HgN/A
1:30 AM61 °FThunderstorms. Overcast.No wind94%30.09 "HgN/A
1:00 AM61 °FThunderstorms. Overcast.2 mph94%30.09 "HgN/A
12:30 AM63 °FPassing clouds.No wind88%30.09 "HgN/A
12:00 AM63 °FPassing clouds.No wind88%30.12 "HgN/A
11:30 PM
Tue, Oct 25
63 °FPassing clouds.No wind88%30.12 "HgN/A
11:00 PM64 °FPassing clouds.2 mph83%30.15 "HgN/A
10:30 PM64 °FPassing clouds.No wind83%30.15 "HgN/A
10:00 PM64 °FPassing clouds.No wind83%30.15 "HgN/A
Weather by CustomWeather, © 2016

See weather overviewHow to use our weather pages